Location: Unspecified
(48.2082°N, 0.0000°E)
Time: 18:56:39
(UTC+00:00)

Transit 4A - Pass Details

Date: 19 June 2019
Orbit: 862 x 982 km, 66.8° (Epoch: 16 July)

Event Time Altitude Azimuth Distance (km) Brightness Sun altitude
Rises 19:18:21 0° 312° (NW) 3,685 13.1 5.4°
Reaches altitude 10° 19:22:12 10° 290° (WNW) 2,718 12.6 4.9°
Maximum altitude 19:25:25 15° 259° (W) 2,382 10.9 4.4°
Drops below altitude 10° 19:28:36 10° 228° (SW) 2,676 10.6 4.0°
Sets 19:32:21 0° 205° (SSW) 3,590 10.9 3.4°
